Simultaneous Nadir Overpasses (SNOs) Predictions

Prediction of SNOs between AQUA and METOP-A Satellite Orbit:

Table of predicted SNOs for the next 14.0 days since TLE Epoch: 9/21/2018
Index Date (AQUA) Time (AQUA) Lat,Lon (AQUA) SZA (AQUA ) Date (METOP-A) Time (METOP-A) Lat,Lon (METOP-A) SZA (METOP-A ) Distance(km) Time Diff (sec)
1 09/22/2018 00:59:52 74.57, 157.65 74.16 09/22/2018 00:59:24 74.57, 157.69 74.16 1.29 28
2 09/22/2018 01:49:18 -74.62, -34.84 105.77 09/22/2018 01:50:05 -74.60, -34.90 105.80 3.14 47
3 09/24/2018 20:34:04 74.59,-135.96 75.27 09/24/2018 20:33:40 74.59,-135.86 75.27 3.14 24
4 09/24/2018 21:23:30 -74.64, 31.57 104.67 09/24/2018 21:24:21 -74.62, 31.56 104.69 2.45 51
5 09/27/2018 15:18:36 -73.99, 124.26 104.28 09/27/2018 15:17:29 -73.98, 121.68 104.23 79.26 67
6 09/27/2018 16:08:15 74.57, -69.45 76.34 09/27/2018 16:07:57 74.55, -69.54 76.33 3.09 18
7 09/27/2018 16:57:42 -74.66, 97.97 103.56 09/27/2018 16:58:37 -74.64, 98.01 103.59 3.13 55
8 09/30/2018 10:52:50 -74.17,-169.70 103.01 09/30/2018 10:51:41 -74.14,-171.51 102.99 55.28 69
9 09/30/2018 11:42:26 74.60, -3.08 77.46 09/30/2018 11:42:12 74.57, -3.09 77.43 3.88 14
10 09/30/2018 12:31:52 -74.64, 164.48 102.49 09/30/2018 12:32:52 -74.65, 164.45 102.48 1.80 60
11 10/03/2018 06:27:05 -74.36,-103.68 101.73 10/03/2018 06:25:54 -74.30,-104.71 101.75 31.52 71
12 10/03/2018 07:16:37 74.59, 63.40 78.53 10/03/2018 07:16:28 74.58, 63.35 78.53 1.76 9




NCC Satellite Simultaneous Nadir Overpasses (SNOs) Prediction Service
